SCP
0 0 0 0 0 0 0 0 0 0 0 0 0 -0 -0 -0 0 0 0 0 0 0 0 0 0 0 0 0 0 0 0 0 0 0 0 0 0 0 0 0 0 0 0 0 0
0 0 0 0 0 0 0 0 0 0 0 0 0 0 0 0 0 0 0 0 0 0 0 0 0 0 0 0 0 0 0 0 0 0 0 0 0 0 0 0 0 0 0 0 0
0 0 0 0 0 0 0 0 0 0 0 0 0 0 0 0 0 0 0 0 0 0 0 0 0 0 0 0 0 0 0 0 0 0 0 0 0 0 0 0 0 0 0 0 0
0 0 0 0 0 0 0 0 0 0 0 0 0 0 0 0 0 0 0 0 0 0 0 0 0 0 0 0 0 0 0 0 0 0 0 0 0 0 0 0 0 0 0 0 0
0 0 0 0 0 0 0 0 0 0 0 0 0 0 0 0 0 0 0 0 0 0 0 0 0 0 0 0 0 0 0 0 0 0 0 0 0 0 0 0 0 0 0 0 0
0 0 0 0 0 0 0 0 0 0 0 0 0 0 0 0 0 0 0 0 0 0 0 0 0 0 0 0 0 0 0 0 0 0 0 0 0 0 0 0 0 0 0 0 0
0 0 0 0 0 0 0 0 0 0 0 0 0 0 0 0 0 0 0 0 0 0 0 0 0 0 0 0 0 0 0 0 0 0 0 0 0 0 0 0 0 0 0 0 0
0 0 0 0 0 0 0 0 0 0 0 0 0 0 0 0 0 0 0 0 0 0 0 0 0 0 0 0 0 0 0 0 0 0 0 0 0 0 0 0 0 0 0 0 0
0 0 0 0 0 0 0 0 0 0 0 0 0 0 0 0 0 0 0 0 0 0 0 0 0 0 0 0 0 0 0 0 0 0 0 0 0 0 0 0 0 0 0 0 0
0 0 0 0 0 0 0 0 0 0 0 0 0 0 0 0 0 0 0 0 0 0 0 0 0 0 0 0 0 0 0 0 0 0 0 0 0 0 0 0 0 0 0 0 0
0 0 0 0 0 0 0 0 0 0 0 0 0 0 0 0 0 0 0 0 0 0 0 0 0 0 0 0 0 0 0 0 0 0 0 0 0 0 0 0 0 0 0 0 0
0 0 0 0 0 0 0 0 0 0 0 0 0 0 0 0 0 0 0 0 0 0 0 0 0 0 0 0 0 0 0 0 0 0 0 0 0 0 0 0 0 0 0 0 0
0 0 0 0 0 0 0 0 0 0 0 0 0 0 0 0 0 0 0 0 0 0 0 0 0 0 0 0 0 0 0 0 0 0 0 0 0 0 0 0 0 0 0 0 0
0 0 0 0 0 0 0 0 0 0 0 0 0 0 0 0 0 0 0 0 0 0 0 0 0 0 0 0 0 0 0 0 0 0 0 0 0 0 0 0 0 0 0 0 0
0 0 0 0 0 0 0 0 0 0 0 0 0 0 0 0 0 0 0 0 0 0 0 0 0 0 0 0 0 0 0 0 0 0 0 0 0 0 0 0 0 0 0 0 0
0 0 0 0 0 0 0 0 0 0 0 0 0 0 0 0 0 0 0 0 0 0 0 0 0 0 0 0 0 0 0 0 0 0 0 0 0 0 0 0 0 0 0 0 0
0 0 0 0 0 0 0 0 0 0 0 0 0 0 0 0 0 0 0 0 0 0 0 0 0 0 0 0 0 0 0 0 0 0 0 0 0 0 0 0 0 0 0 0 0
0 0 0 0 0 0 0 0 0 0 0 0 0 0 0 0 0 0 0 0 0 0 0 0 0 0 0 0 0 0 0 0 0 0 0 0 0 0 0 0 0 0 0 0 0
0 0 0 0 0 0 0 0 0 0 0 0 0 0 0 0 0 0 0 0 0 0 0 0 0 0 0 0 0 0 0 0 0 0 0 0 0 0 0 0 0 0 0 0 0
0 0 0 0 0 0 0 0 0 0 0 0 0 0 0 0 0 0 0 0 0 0 0 0 0 0 0 0 0 0 0 0 0 0 0 0 0 0 0 0 0 0 0 0 0
0 0 0 0 0 0 0 0 0 0 0 0 0 0 0 0 0 0 0 0 0 0 0 0 0 0 0 0 0 0 0 0 0 0 0 0 0 0 0 0 0 0 0 0 0
0 0 0 0 0 0 0 0 0 0 0 0 0 0 0 0 0 0 0 0 0 0 0 0 0 0 0 0 0 0 0 0 0 0 0 0 0 0 0 0 0 0 0 0 0
0 0 0 0 0 0 0 0 0 0 0 0 0 0 0 0 0 0 0 0 0 0 0 0 0 0 0 0 0 0 0 0 0 0 0 0 0 0 0 0 0 0 0 0 0
0 0 0 0 0 0 0 0 0 0 0 0 0 0 0 0 0 0 0 0 0 0 0 0 0 0 0 0 0 0 0 0 0 0 0 0 0 0 0 0 0 0 0 0 0
0 0 0 0 0 0 0 0 0 0 0 0 0 0 0 0 0 0 0 0 0 0 0 0 0 0 0 0 0 0 0 0 0 0 0 0 0 0 0 0 0 0 0 0 0
0 0 0 0 0 0 0 0 0 0 0 0 0 0 0 0 0 0 0 0 0 0 0 0 0 0 0 0 0 0 0 0 0 0 0 0 0 0 0 0 0 0 0 0 0
0 0 0 0 0 0 0 0 0 0 0 0 0 0 0 0 0 0 0 0 0 0 0 0 0 0 0 0 0 0 0 0 0 0 0 0 0 0 0 0 0 0 0 0 0
Wind_Speed_500mb
8 10 10 9 10 10 10 10 11 12 14 16 17 19 21 21 23 24 22 12 9 10 12 9 6 1 3 7 8 5 8 3 7 12 3 4 7 1 7 4 4 6 5 11 22
15 15 15 15 14 14 15 15 15 16 18 19 20 21 23 24 24 24 13 8 7 8 10 9 7 5 4 4 4 8 7 13 8 8 6 2 2 11 2 10 3 2 3 13 15
21 21 21 19 18 18 18 19 19 20 21 23 24 23 22 22 23 4 2 5 9 10 13 9 5 1 4 2 2 5 8 8 6 12 5 5 4 5 4 4 6 12 15 8 13
26 26 26 24 23 22 22 22 22 23 24 25 23 23 22 18 6 2 5 7 9 11 9 5 3 2 5 4 4 2 7 8 4 6 4 4 2 5 11 3 9 10 3 5 8
30 29 29 29 26 25 25 26 27 26 26 25 24 24 22 12 16 18 13 13 12 13 12 9 7 8 6 7 5 4 4 7 10 15 19 14 12 8 8 5 11 10 6 6 12
34 32 32 31 31 29 29 30 30 28 27 25 25 25 22 14 19 19 19 20 20 19 18 14 6 9 7 5 7 2 7 17 16 19 15 8 3 5 12 13 11 7 10 9 7
37 35 34 34 34 34 34 33 30 29 29 28 27 25 28 37 23 18 18 20 20 20 19 18 14 12 10 5 2 1 7 12 8 9 10 11 5 8 12 10 10 10 10 11 14
40 40 39 38 37 36 35 34 31 31 30 29 26 23 21 26 27 31 34 24 19 19 18 17 17 11 5 11 7 4 8 6 3 3 3 7 6 6 3 7 8 8 8 10 11
43 43 43 42 40 37 35 34 33 32 31 29 25 18 18 25 26 32 28 24 23 20 17 17 19 9 10 10 8 10 6 8 15 3 2 3 9 9 12 12 16 12 12 11 11
41 41 41 41 40 40 36 32 31 32 33 30 30 12 32 16 17 22 27 24 19 24 19 15 8 7 5 8 11 13 9 8 10 2 5 4 15 10 17 16 19 16 17 17 18
42 39 39 37 37 38 34 23 20 17 30 26 12 12 7 22 19 21 30 30 21 18 11 8 7 18 26 17 7 11 8 9 5 5 2 12 12 4 10 16 18 16 19 25 32
45 41 37 35 33 33 30 17 15 8 19 33 48 45 34 19 16 28 35 27 18 11 15 6 15 18 10 10 9 8 8 11 8 5 9 6 16 2 5 5 10 21 24 30 38
50 44 39 36 34 37 40 35 28 17 12 20 45 49 56 50 31 40 49 26 12 14 19 17 9 23 15 9 12 10 13 10 14 0 4 3 12 7 4 11 16 20 25 31 39
58 49 42 39 35 42 42 25 26 6 7 13 17 17 35 37 15 37 56 22 9 22 16 13 8 12 9 11 16 12 16 13 10 8 8 2 9 8 9 9 13 23 27 31 35
56 57 53 52 34 32 29 20 20 13 11 5 9 13 25 27 27 15 49 23 16 16 14 13 15 11 10 14 14 13 13 14 7 7 2 4 1 11 7 14 15 32 37 36 35
49 52 60 57 58 46 18 26 34 6 24 9 10 10 12 7 6 13 17 10 10 10 1 7 4 13 15 5 10 19 14 12 9 6 3 13 12 7 11 10 15 29 44 43 41
54 43 47 72 76 60 38 56 9 16 3 12 10 13 7 11 8 10 14 14 14 11 13 1 8 7 12 12 6 2 13 3 3 1 11 1 5 14 9 11 24 44 61 53 45
66 61 61 50 76 72 62 19 17 20 26 7 9 7 14 13 8 11 14 15 11 5 7 17 10 21 12 14 17 14 14 10 15 9 6 1 12 11 6 6 10 53 66 58 53
65 68 69 66 72 76 57 26 24 15 20 19 7 8 8 9 12 9 15 13 23 22 17 14 12 2 4 9 11 12 10 6 14 5 3 8 9 5 5 3 11 43 64 66 61
60 73 77 71 66 89 33 36 18 17 16 12 35 20 26 18 16 17 22 14 16 27 9 14 4 2 5 8 7 9 14 7 4 5 10 6 7 10 11 16 12 26 59 72 65
58 41 53 81 60 55 26 22 38 12 31 18 30 18 15 19 23 14 17 5 15 27 33 13 8 4 9 14 20 6 7 7 9 8 10 3 9 10 13 20 29 40 63 73 68
55 17 34 60 31 10 32 18 21 28 45 20 7 19 22 23 22 24 33 19 43 40 33 21 10 9 16 3 2 4 15 15 11 11 6 5 11 3 10 19 39 49 70 71 69
44 44 27 64 24 21 8 25 19 14 33 25 22 15 8 22 10 22 20 12 43 36 36 22 10 6 8 6 3 12 11 8 10 7 17 11 9 5 6 16 41 47 61 66 66
29 7 20 37 18 32 28 22 16 11 14 23 10 13 12 17 15 9 17 6 26 18 30 48 10 23 31 11 14 15 16 13 17 10 13 26 7 11 12 15 28 46 52 61 66
28 10 10 6 27 12 24 18 24 20 11 8 9 36 35 27 30 21 8 4 4 4 1 14 21 9 3 2 8 10 19 28 31 31 18 16 26 19 24 25 46 52 49 54 64
26 8 17 2 11 22 20 16 27 16 17 11 18 10 14 16 21 21 18 11 8 0 6 6 7 8 9 3 4 3 15 24 25 12 23 7 16 13 34 26 31 36 44 52 64
15 25 17 14 7 10 12 23 39 29 21 20 18 6 9 16 10 3 7 17 12 13 7 10 10 7 8 7 10 11 21 22 11 11 22 25 24 13 11 20 42 42 39 50 61
Wind_Direction_500mb
284 287 287 287 290 293 297 297 302 303 308 311 316 316 316 316 314 311 310 291 266 231 219 220 222 243 31 66 64 83 63 164 201 165 182 37 44 316 325 293 34 57 48 307 290
272 275 277 282 286 290 293 296 298 302 304 306 309 311 314 317 315 306 284 260 238 218 208 183 160 109 72 67 49 82 108 213 198 196 153 101 100 311 357 336 35 9 299 312 279
267 268 270 270 273 277 282 288 293 295 297 301 306 308 313 322 323 313 206 163 151 155 153 147 148 29 107 101 71 133 177 198 236 217 221 163 284 197 326 78 124 312 320 45 59
260 263 265 267 271 274 277 280 285 289 293 296 300 304 308 315 304 300 213 190 178 176 183 196 245 117 106 147 159 125 223 205 254 210 204 228 209 264 234 146 288 274 150 56 48
258 260 264 268 269 272 277 280 283 286 289 293 298 302 306 287 259 261 253 228 214 213 226 241 232 172 163 154 147 163 275 229 261 266 276 264 249 249 321 226 141 124 126 41 18
256 255 260 265 270 271 275 279 281 283 286 290 295 297 294 260 261 257 251 242 238 241 243 234 222 191 138 148 166 215 281 286 285 267 260 221 134 164 92 130 117 94 55 37 14
259 259 259 262 268 273 276 275 276 279 284 290 293 293 280 265 262 250 246 243 240 236 230 218 209 187 161 127 167 131 319 319 264 271 223 168 110 89 128 145 87 54 41 26 14
259 262 264 266 268 272 273 273 274 277 281 285 285 287 263 260 249 246 244 238 225 218 211 199 192 175 172 131 40 59 52 356 282 169 316 171 222 176 68 221 91 67 46 25 13
259 261 264 266 268 267 268 272 275 277 278 280 280 263 261 250 239 234 229 222 211 198 186 181 172 156 138 99 12 6 232 210 317 34 129 148 250 95 73 123 94 77 65 59 59
260 259 260 264 265 266 265 268 272 276 273 274 256 260 236 234 216 213 208 200 184 180 153 167 146 94 60 118 219 194 210 234 236 266 131 196 264 114 66 83 86 91 95 92 83
258 258 258 257 259 260 260 265 273 267 238 217 221 204 254 212 206 198 193 181 161 167 158 158 134 209 196 197 134 137 171 214 232 247 186 234 252 31 71 83 109 116 116 107 97
254 254 256 256 254 251 246 221 220 262 295 255 246 247 245 217 192 193 184 175 174 174 123 79 226 217 130 157 165 152 163 233 274 226 177 259 255 116 76 139 161 150 135 119 111
250 249 248 249 245 243 242 234 235 285 265 258 243 239 234 226 220 196 188 189 166 153 192 178 206 157 141 150 171 202 192 200 215 47 211 303 274 205 67 124 148 154 144 134 128
244 242 239 237 239 240 243 244 225 286 279 251 215 222 204 202 229 206 197 184 178 187 159 235 218 152 159 190 169 207 201 177 164 123 232 99 274 252 177 167 187 175 164 152 143
237 237 231 230 225 218 241 220 188 178 288 204 161 174 166 180 145 177 180 195 165 165 144 233 169 172 182 205 164 228 131 150 132 142 79 241 259 260 133 217 197 198 180 170 157
257 243 229 225 225 230 203 171 155 93 242 213 134 157 133 171 137 114 162 149 146 115 286 230 191 163 194 109 167 151 84 56 58 88 262 220 190 251 200 208 181 195 187 178 170
255 239 241 223 222 216 191 159 179 196 164 194 184 169 165 161 164 161 164 169 161 142 203 199 217 181 140 90 50 173 112 94 8 304 232 326 165 248 192 178 181 183 189 184 178
250 243 245 244 234 210 187 186 208 220 212 108 116 96 180 155 195 167 140 178 236 124 124 182 254 171 185 177 177 189 170 164 195 201 226 41 223 255 132 175 201 191 185 182 183
247 246 245 238 238 213 184 208 207 188 182 132 85 132 229 220 156 148 196 204 194 181 184 177 250 84 109 145 150 187 198 153 103 53 50 216 288 254 150 143 175 182 187 189 187
242 245 248 240 231 201 196 212 234 187 128 150 206 180 185 189 163 181 176 199 195 185 182 209 143 242 164 107 42 172 157 89 14 175 246 242 254 235 211 204 181 180 190 194 189
244 258 253 239 225 201 215 222 229 195 190 182 214 211 187 177 183 204 208 241 197 189 177 154 141 207 131 209 175 155 172 62 125 146 182 251 251 215 215 180 189 198 194 196 194
224 230 228 203 193 203 217 203 214 202 217 237 216 206 183 173 186 204 206 219 186 160 185 187 142 166 208 282 295 179 185 167 170 207 242 163 253 106 263 207 183 192 197 197 199
222 234 214 189 210 206 181 206 213 196 201 212 206 202 153 187 210 210 192 203 173 167 172 179 198 97 359 340 306 212 196 158 114 95 190 154 246 149 184 166 195 194 199 200 203
210 224 212 239 282 207 203 195 200 201 230 217 197 146 168 204 204 212 213 225 195 210 182 174 167 200 220 189 144 191 186 180 177 185 169 227 198 223 198 183 193 205 207 206 208
202 189 204 229 228 257 193 169 197 212 215 198 215 211 202 212 216 212 136 269 41 187 113 168 218 149 83 74 130 179 179 182 201 208 194 213 226 193 193 197 203 206 204 208 210
202 181 160 282 240 205 207 194 189 188 173 195 227 201 241 221 207 193 152 187 169 138 190 17 201 139 177 65 94 283 220 197 207 216 242 127 252 194 201 190 186 196 202 208 212
211 191 182 171 195 204 213 193 204 191 206 199 176 164 242 239 224 116 213 174 149 160 153 150 139 150 191 147 124 259 214 185 176 185 188 208 231 166 188 190 203 201 204 216 220
Wind_Speed_850mb
8 10 10 9 10 10 10 10 11 12 14 16 17 19 21 21 23 24 22 12 9 10 12 9 6 1 3 7 8 5 8 3 7 12 3 4 7 1 7 4 4 6 5 11 22
15 15 15 15 14 14 15 15 15 16 18 19 20 21 23 24 24 24 13 8 7 8 10 9 7 5 4 4 4 8 7 13 8 8 6 2 2 11 2 10 3 2 3 13 15
21 21 21 19 18 18 18 19 19 20 21 23 24 23 22 22 23 4 2 5 9 10 13 9 5 1 4 2 2 5 8 8 6 12 5 5 4 5 4 4 6 12 15 8 13
26 26 26 24 23 22 22 22 22 23 24 25 23 23 22 18 6 2 5 7 9 11 9 5 3 2 5 4 4 2 7 8 4 6 4 4 2 5 11 3 9 10 3 5 8
30 29 29 29 26 25 25 26 27 26 26 25 24 24 22 12 16 18 13 13 12 13 12 9 7 8 6 7 5 4 4 7 10 15 19 14 12 8 8 5 11 10 6 6 12
34 32 32 31 31 29 29 30 30 28 27 25 25 25 22 14 19 19 19 20 20 19 18 14 6 9 7 5 7 2 7 17 16 19 15 8 3 5 12 13 11 7 10 9 7
37 35 34 34 34 34 34 33 30 29 29 28 27 25 28 37 23 18 18 20 20 20 19 18 14 12 10 5 2 1 7 12 8 9 10 11 5 8 12 10 10 10 10 11 14
40 40 39 38 37 36 35 34 31 31 30 29 26 23 21 26 27 31 34 24 19 19 18 17 17 11 5 11 7 4 8 6 3 3 3 7 6 6 3 7 8 8 8 10 11
43 43 43 42 40 37 35 34 33 32 31 29 25 18 18 25 26 32 28 24 23 20 17 17 19 9 10 10 8 10 6 8 15 3 2 3 9 9 12 12 16 12 12 11 11
41 41 41 41 40 40 36 32 31 32 33 30 30 12 32 16 17 22 27 24 19 24 19 15 8 7 5 8 11 13 9 8 10 2 5 4 15 10 17 16 19 16 17 17 18
42 39 39 37 37 38 34 23 20 17 30 26 12 12 7 22 19 21 30 30 21 18 11 8 7 18 26 17 7 11 8 9 5 5 2 12 12 4 10 16 18 16 19 25 32
45 41 37 35 33 33 30 17 15 8 19 33 48 45 34 19 16 28 35 27 18 11 15 6 15 18 10 10 9 8 8 11 8 5 9 6 16 2 5 5 10 21 24 30 38
50 44 39 36 34 37 40 35 28 17 12 20 45 49 56 50 31 40 49 26 12 14 19 17 9 23 15 9 12 10 13 10 14 0 4 3 12 7 4 11 16 20 25 31 39
58 49 42 39 35 42 42 25 26 6 7 13 17 17 35 37 15 37 56 22 9 22 16 13 8 12 9 11 16 12 16 13 10 8 8 2 9 8 9 9 13 23 27 31 35
56 57 53 52 34 32 29 20 20 13 11 5 9 13 25 27 27 15 49 23 16 16 14 13 15 11 10 14 14 13 13 14 7 7 2 4 1 11 7 14 15 32 37 36 35
49 52 60 57 58 46 18 26 34 6 24 9 10 10 12 7 6 13 17 10 10 10 1 7 4 13 15 5 10 19 14 12 9 6 3 13 12 7 11 10 15 29 44 43 41
54 43 47 72 76 60 38 56 9 16 3 12 10 13 7 11 8 10 14 14 14 11 13 1 8 7 12 12 6 2 13 3 3 1 11 1 5 14 9 11 24 44 61 53 45
66 61 61 50 76 72 62 19 17 20 26 7 9 7 14 13 8 11 14 15 11 5 7 17 10 21 12 14 17 14 14 10 15 9 6 1 12 11 6 6 10 53 66 58 53
65 68 69 66 72 76 57 26 24 15 20 19 7 8 8 9 12 9 15 13 23 22 17 14 12 2 4 9 11 12 10 6 14 5 3 8 9 5 5 3 11 43 64 66 61
60 73 77 71 66 89 33 36 18 17 16 12 35 20 26 18 16 17 22 14 16 27 9 14 4 2 5 8 7 9 14 7 4 5 10 6 7 10 11 16 12 26 59 72 65
58 41 53 81 60 55 26 22 38 12 31 18 30 18 15 19 23 14 17 5 15 27 33 13 8 4 9 14 20 6 7 7 9 8 10 3 9 10 13 20 29 40 63 73 68
55 17 34 60 31 10 32 18 21 28 45 20 7 19 22 23 22 24 33 19 43 40 33 21 10 9 16 3 2 4 15 15 11 11 6 5 11 3 10 19 39 49 70 71 69
44 44 27 64 24 21 8 25 19 14 33 25 22 15 8 22 10 22 20 12 43 36 36 22 10 6 8 6 3 12 11 8 10 7 17 11 9 5 6 16 41 47 61 66 66
29 7 20 37 18 32 28 22 16 11 14 23 10 13 12 17 15 9 17 6 26 18 30 48 10 23 31 11 14 15 16 13 17 10 13 26 7 11 12 15 28 46 52 61 66
28 10 10 6 27 12 24 18 24 20 11 8 9 36 35 27 30 21 8 4 4 4 1 14 21 9 3 2 8 10 19 28 31 31 18 16 26 19 24 25 46 52 49 54 64
26 8 17 2 11 22 20 16 27 16 17 11 18 10 14 16 21 21 18 11 8 0 6 6 7 8 9 3 4 3 15 24 25 12 23 7 16 13 34 26 31 36 44 52 64
15 25 17 14 7 10 12 23 39 29 21 20 18 6 9 16 10 3 7 17 12 13 7 10 10 7 8 7 10 11 21 22 11 11 22 25 24 13 11 20 42 42 39 50 61
Wind_Direction_850mb
284 287 287 287 290 293 297 297 302 303 308 311 316 316 316 316 314 311 310 291 266 231 219 220 222 243 31 66 64 83 63 164 201 165 182 37 44 316 325 293 34 57 48 307 290
272 275 277 282 286 290 293 296 298 302 304 306 309 311 314 317 315 306 284 260 238 218 208 183 160 109 72 67 49 82 108 213 198 196 153 101 100 311 357 336 35 9 299 312 279
267 268 270 270 273 277 282 288 293 295 297 301 306 308 313 322 323 313 206 163 151 155 153 147 148 29 107 101 71 133 177 198 236 217 221 163 284 197 326 78 124 312 320 45 59
260 263 265 267 271 274 277 280 285 289 293 296 300 304 308 315 304 300 213 190 178 176 183 196 245 117 106 147 159 125 223 205 254 210 204 228 209 264 234 146 288 274 150 56 48
258 260 264 268 269 272 277 280 283 286 289 293 298 302 306 287 259 261 253 228 214 213 226 241 232 172 163 154 147 163 275 229 261 266 276 264 249 249 321 226 141 124 126 41 18
256 255 260 265 270 271 275 279 281 283 286 290 295 297 294 260 261 257 251 242 238 241 243 234 222 191 138 148 166 215 281 286 285 267 260 221 134 164 92 130 117 94 55 37 14
259 259 259 262 268 273 276 275 276 279 284 290 293 293 280 265 262 250 246 243 240 236 230 218 209 187 161 127 167 131 319 319 264 271 223 168 110 89 128 145 87 54 41 26 14
259 262 264 266 268 272 273 273 274 277 281 285 285 287 263 260 249 246 244 238 225 218 211 199 192 175 172 131 40 59 52 356 282 169 316 171 222 176 68 221 91 67 46 25 13
259 261 264 266 268 267 268 272 275 277 278 280 280 263 261 250 239 234 229 222 211 198 186 181 172 156 138 99 12 6 232 210 317 34 129 148 250 95 73 123 94 77 65 59 59
260 259 260 264 265 266 265 268 272 276 273 274 256 260 236 234 216 213 208 200 184 180 153 167 146 94 60 118 219 194 210 234 236 266 131 196 264 114 66 83 86 91 95 92 83
258 258 258 257 259 260 260 265 273 267 238 217 221 204 254 212 206 198 193 181 161 167 158 158 134 209 196 197 134 137 171 214 232 247 186 234 252 31 71 83 109 116 116 107 97
254 254 256 256 254 251 246 221 220 262 295 255 246 247 245 217 192 193 184 175 174 174 123 79 226 217 130 157 165 152 163 233 274 226 177 259 255 116 76 139 161 150 135 119 111
250 249 248 249 245 243 242 234 235 285 265 258 243 239 234 226 220 196 188 189 166 153 192 178 206 157 141 150 171 202 192 200 215 47 211 303 274 205 67 124 148 154 144 134 128
244 242 239 237 239 240 243 244 225 286 279 251 215 222 204 202 229 206 197 184 178 187 159 235 218 152 159 190 169 207 201 177 164 123 232 99 274 252 177 167 187 175 164 152 143
237 237 231 230 225 218 241 220 188 178 288 204 161 174 166 180 145 177 180 195 165 165 144 233 169 172 182 205 164 228 131 150 132 142 79 241 259 260 133 217 197 198 180 170 157
257 243 229 225 225 230 203 171 155 93 242 213 134 157 133 171 137 114 162 149 146 115 286 230 191 163 194 109 167 151 84 56 58 88 262 220 190 251 200 208 181 195 187 178 170
255 239 241 223 222 216 191 159 179 196 164 194 184 169 165 161 164 161 164 169 161 142 203 199 217 181 140 90 50 173 112 94 8 304 232 326 165 248 192 178 181 183 189 184 178
250 243 245 244 234 210 187 186 208 220 212 108 116 96 180 155 195 167 140 178 236 124 124 182 254 171 185 177 177 189 170 164 195 201 226 41 223 255 132 175 201 191 185 182 183
247 246 245 238 238 213 184 208 207 188 182 132 85 132 229 220 156 148 196 204 194 181 184 177 250 84 109 145 150 187 198 153 103 53 50 216 288 254 150 143 175 182 187 189 187
242 245 248 240 231 201 196 212 234 187 128 150 206 180 185 189 163 181 176 199 195 185 182 209 143 242 164 107 42 172 157 89 14 175 246 242 254 235 211 204 181 180 190 194 189
244 258 253 239 225 201 215 222 229 195 190 182 214 211 187 177 183 204 208 241 197 189 177 154 141 207 131 209 175 155 172 62 125 146 182 251 251 215 215 180 189 198 194 196 194
224 230 228 203 193 203 217 203 214 202 217 237 216 206 183 173 186 204 206 219 186 160 185 187 142 166 208 282 295 179 185 167 170 207 242 163 253 106 263 207 183 192 197 197 199
222 234 214 189 210 206 181 206 213 196 201 212 206 202 153 187 210 210 192 203 173 167 172 179 198 97 359 340 306 212 196 158 114 95 190 154 246 149 184 166 195 194 199 200 203
210 224 212 239 282 207 203 195 200 201 230 217 197 146 168 204 204 212 213 225 195 210 182 174 167 200 220 189 144 191 186 180 177 185 169 227 198 223 198 183 193 205 207 206 208
202 189 204 229 228 257 193 169 197 212 215 198 215 211 202 212 216 212 136 269 41 187 113 168 218 149 83 74 130 179 179 182 201 208 194 213 226 193 193 197 203 206 204 208 210
202 181 160 282 240 205 207 194 189 188 173 195 227 201 241 221 207 193 152 187 169 138 190 17 201 139 177 65 94 283 220 197 207 216 242 127 252 194 201 190 186 196 202 208 212
211 191 182 171 195 204 213 193 204 191 206 199 176 164 242 239 224 116 213 174 149 160 153 150 139 150 191 147 124 259 214 185 176 185 188 208 231 166 188 190 203 201 204 216 220